Voltar ao catálogo

STARLINK-1500

AtivoComunicaçõesVLEO
NORAD 45744·PAYLOAD·🇺🇸 United States

Lançado Jun 13, 2020 de Cape Canaveral Space Force Station

Loading…

Próximas Passagens (próximas 24 horas)

TLE

AtualizadoSource: CelesTrak SupGP

Época: Sep 15, 2026, 01:52 UTC

1 45744C 20038Q   26258.07826389  .00018183  00000+0  39372-3 0  2588
2 45744  53.0350  18.0429 0002271 123.8519   2.4700 15.43850869    10

Acompanhe STARLINK-1500 em tempo real com AllMySat

Download on the App Store